Year,Month,Day,Hour,Minute,Value (Times are PST for temperature in C)
2012,06,11,00,00,11.30
2012,06,11,00,01,11.30
2012,06,11,00,02,11.30
2012,06,11,00,03,11.30
2012,06,11,00,04,11.30
2012,06,11,00,05,11.30
2012,06,11,00,06,11.30
2012,06,11,00,07,11.20
2012,06,11,00,08,11.20
2012,06,11,00,09,11.20
2012,06,11,00,10,11.20
2012,06,11,00,11,11.20
2012,06,11,00,12,11.20
2012,06,11,00,13,11.20
2012,06,11,00,14,11.20
2012,06,11,00,15,11.20
2012,06,11,00,16,11.20
2012,06,11,00,17,11.30
2012,06,11,00,18,11.30
2012,06,11,00,19,11.30
2012,06,11,00,20,11.20
2012,06,11,00,21,11.20
2012,06,11,00,22,11.20
2012,06,11,00,23,11.20
2012,06,11,00,24,11.20
2012,06,11,00,25,11.20
2012,06,11,00,26,11.10
2012,06,11,00,27,11.10
2012,06,11,00,28,11.10
2012,06,11,00,29,11.10
2012,06,11,00,30,11.00
2012,06,11,00,31,11.00
2012,06,11,00,32,11.00
2012,06,11,00,33,10.90
2012,06,11,00,34,10.90
2012,06,11,00,35,10.90
2012,06,11,00,36,10.90
2012,06,11,00,37,10.90
2012,06,11,00,38,10.90
2012,06,11,00,39,10.80
2012,06,11,00,40,10.80
2012,06,11,00,41,10.80
2012,06,11,00,42,10.80
2012,06,11,00,43,10.80
2012,06,11,00,44,10.80
2012,06,11,00,45,10.80
2012,06,11,00,46,10.70
2012,06,11,00,47,10.70
2012,06,11,00,48,10.70
2012,06,11,00,49,10.70
2012,06,11,00,50,10.70
2012,06,11,00,51,10.70
2012,06,11,00,52,10.70
2012,06,11,00,53,10.70
2012,06,11,00,54,10.70
2012,06,11,00,55,10.70
2012,06,11,00,56,10.70
2012,06,11,00,57,10.60
2012,06,11,00,58,10.60
2012,06,11,00,59,10.60
2012,06,11,01,00,10.60
2012,06,11,01,01,10.60
2012,06,11,01,02,10.60
2012,06,11,01,03,10.60
2012,06,11,01,04,10.60
2012,06,11,01,05,10.50
2012,06,11,01,06,10.50
2012,06,11,01,07,10.50
2012,06,11,01,08,10.50
2012,06,11,01,09,10.50
2012,06,11,01,10,10.50
2012,06,11,01,11,10.50
2012,06,11,01,12,10.50
2012,06,11,01,13,10.50
2012,06,11,01,14,10.50
2012,06,11,01,15,10.50
2012,06,11,01,16,10.50
2012,06,11,01,17,10.40
2012,06,11,01,18,10.40
2012,06,11,01,19,10.40
2012,06,11,01,20,10.40
2012,06,11,01,21,10.40
2012,06,11,01,22,10.40
2012,06,11,01,23,10.40
2012,06,11,01,24,10.40
2012,06,11,01,25,10.40
2012,06,11,01,26,10.40
2012,06,11,01,27,10.40
2012,06,11,01,28,10.30
2012,06,11,01,29,10.30
2012,06,11,01,30,10.30
2012,06,11,01,31,10.30
2012,06,11,01,32,10.30
2012,06,11,01,33,10.30
2012,06,11,01,34,10.30
2012,06,11,01,35,10.30
2012,06,11,01,36,10.30
2012,06,11,01,37,10.40
2012,06,11,01,38,10.40
2012,06,11,01,39,10.40
2012,06,11,01,40,10.40
2012,06,11,01,41,10.40
2012,06,11,01,42,10.40
2012,06,11,01,43,10.40
2012,06,11,01,44,10.40
2012,06,11,01,45,10.40
2012,06,11,01,46,10.50
2012,06,11,01,47,10.50
2012,06,11,01,48,10.40
2012,06,11,01,49,10.40
2012,06,11,01,50,10.40
2012,06,11,01,51,10.40
2012,06,11,01,52,10.40
2012,06,11,01,53,10.40
2012,06,11,01,54,10.40
2012,06,11,01,55,10.40
2012,06,11,01,56,10.40
2012,06,11,01,57,10.40
2012,06,11,01,58,10.40
2012,06,11,01,59,10.40
2012,06,11,02,00,10.40
2012,06,11,02,01,10.40
2012,06,11,02,02,10.40
2012,06,11,02,03,10.40
2012,06,11,02,04,10.40
2012,06,11,02,05,10.30
2012,06,11,02,06,10.30
2012,06,11,02,07,10.30
2012,06,11,02,08,10.20
2012,06,11,02,09,10.20
2012,06,11,02,10,10.20
2012,06,11,02,11,10.30
2012,06,11,02,12,10.30
2012,06,11,02,13,10.30
2012,06,11,02,14,10.30
2012,06,11,02,15,10.20
2012,06,11,02,16,10.20
2012,06,11,02,17,10.20
2012,06,11,02,18,10.20
2012,06,11,02,19,10.20
2012,06,11,02,20,10.10
2012,06,11,02,21,10.10
2012,06,11,02,22,10.10
2012,06,11,02,23,10.10
2012,06,11,02,24,10.00
2012,06,11,02,25,10.00
2012,06,11,02,26,9.90
2012,06,11,02,27,9.90
2012,06,11,02,28,9.90
2012,06,11,02,29,9.90
2012,06,11,02,30,9.80
2012,06,11,02,31,9.80
2012,06,11,02,32,9.80
2012,06,11,02,33,9.80
2012,06,11,02,34,9.70
2012,06,11,02,35,9.70
2012,06,11,02,36,9.60
2012,06,11,02,37,9.60
2012,06,11,02,38,9.60
2012,06,11,02,39,9.60
2012,06,11,02,40,9.60
2012,06,11,02,41,9.60
2012,06,11,02,42,9.60
2012,06,11,02,43,9.60
2012,06,11,02,44,9.60
2012,06,11,02,45,9.50
2012,06,11,02,46,9.60
2012,06,11,02,47,9.60
2012,06,11,02,48,9.50
2012,06,11,02,49,9.60
2012,06,11,02,50,9.50
2012,06,11,02,51,9.50
2012,06,11,02,52,9.50
2012,06,11,02,53,9.50
2012,06,11,02,54,9.50
2012,06,11,02,55,9.50
2012,06,11,02,56,9.50
2012,06,11,02,57,9.50
2012,06,11,02,58,9.50
2012,06,11,02,59,9.40
2012,06,11,03,00,9.40
2012,06,11,03,01,9.40
2012,06,11,03,02,9.50
2012,06,11,03,03,9.40
2012,06,11,03,04,9.50
2012,06,11,03,05,9.50
2012,06,11,03,06,9.40
2012,06,11,03,07,9.40
2012,06,11,03,08,9.40
2012,06,11,03,09,9.40
2012,06,11,03,10,9.40
2012,06,11,03,11,9.40
2012,06,11,03,12,9.40
2012,06,11,03,13,9.40
2012,06,11,03,14,9.40
2012,06,11,03,15,9.40
2012,06,11,03,16,9.40
2012,06,11,03,17,9.50
2012,06,11,03,18,9.50
2012,06,11,03,19,9.50
2012,06,11,03,20,9.50
2012,06,11,03,21,9.50
2012,06,11,03,22,9.50
2012,06,11,03,23,9.60
2012,06,11,03,24,9.60
2012,06,11,03,25,9.60
2012,06,11,03,26,9.60
2012,06,11,03,27,9.60
2012,06,11,03,28,9.50
2012,06,11,03,29,9.50
2012,06,11,03,30,9.50
2012,06,11,03,31,9.50
2012,06,11,03,32,9.40
2012,06,11,03,33,9.40
2012,06,11,03,34,9.40
2012,06,11,03,35,9.40
2012,06,11,03,36,9.40
2012,06,11,03,37,9.40
2012,06,11,03,38,9.30
2012,06,11,03,39,9.30
2012,06,11,03,40,9.30
2012,06,11,03,41,9.30
2012,06,11,03,42,9.30
2012,06,11,03,43,9.30
2012,06,11,03,44,9.30
2012,06,11,03,45,9.30
2012,06,11,03,46,9.30
2012,06,11,03,47,9.30
2012,06,11,03,48,9.30
2012,06,11,03,49,9.30
2012,06,11,03,50,9.30
2012,06,11,03,51,9.30
2012,06,11,03,52,9.30
2012,06,11,03,53,9.30
2012,06,11,03,54,9.30
2012,06,11,03,55,9.40
2012,06,11,03,56,9.40
2012,06,11,03,57,9.40
2012,06,11,03,58,9.40
2012,06,11,03,59,9.40
2012,06,11,04,00,9.40
2012,06,11,04,01,9.40
2012,06,11,04,02,9.30
2012,06,11,04,03,9.30
2012,06,11,04,04,9.40
2012,06,11,04,05,9.40
2012,06,11,04,06,9.40
2012,06,11,04,07,9.40
2012,06,11,04,08,9.40
2012,06,11,04,09,9.40
2012,06,11,04,10,9.40
2012,06,11,04,11,9.40
2012,06,11,04,12,9.40
2012,06,11,04,13,9.40
2012,06,11,04,14,9.40
2012,06,11,04,15,9.40
2012,06,11,04,16,9.40
2012,06,11,04,17,9.40
2012,06,11,04,18,9.40
2012,06,11,04,19,9.30
2012,06,11,04,20,9.30
2012,06,11,04,21,9.30
2012,06,11,04,22,9.30
2012,06,11,04,23,9.30
2012,06,11,04,24,9.30
2012,06,11,04,25,9.30
2012,06,11,04,26,9.40
2012,06,11,04,27,9.40
2012,06,11,04,28,9.40
2012,06,11,04,29,9.40
2012,06,11,04,30,9.40
2012,06,11,04,31,9.40
2012,06,11,04,32,9.40
2012,06,11,04,33,9.40
2012,06,11,04,34,9.30
2012,06,11,04,35,9.30
2012,06,11,04,36,9.30
2012,06,11,04,37,9.20
2012,06,11,04,38,9.20
2012,06,11,04,39,9.20
2012,06,11,04,40,9.20
2012,06,11,04,41,9.10
2012,06,11,04,42,9.10
2012,06,11,04,43,9.10
2012,06,11,04,44,9.10
2012,06,11,04,45,9.10
2012,06,11,04,46,9.10
2012,06,11,04,47,9.10
2012,06,11,04,48,9.10
2012,06,11,04,49,9.10
2012,06,11,04,50,9.10
2012,06,11,04,51,9.10
2012,06,11,04,52,9.10
2012,06,11,04,53,9.10
2012,06,11,04,54,9.10
2012,06,11,04,55,9.10
2012,06,11,04,56,9.10
2012,06,11,04,57,9.10
2012,06,11,04,58,9.10
2012,06,11,04,59,9.10
2012,06,11,05,00,9.10
2012,06,11,05,01,9.10
2012,06,11,05,02,9.10
2012,06,11,05,03,9.10
2012,06,11,05,04,9.10
2012,06,11,05,05,9.10
2012,06,11,05,06,9.10
2012,06,11,05,07,9.10
2012,06,11,05,08,9.10
2012,06,11,05,09,9.10
2012,06,11,05,10,9.10
2012,06,11,05,11,9.10
2012,06,11,05,12,9.20
2012,06,11,05,13,9.20
2012,06,11,05,14,9.20
2012,06,11,05,15,9.20
2012,06,11,05,16,9.20
2012,06,11,05,17,9.20
2012,06,11,05,18,9.20
2012,06,11,05,19,9.20
2012,06,11,05,20,9.20
2012,06,11,05,21,9.20
2012,06,11,05,22,9.20
2012,06,11,05,23,9.20
2012,06,11,05,24,9.20
2012,06,11,05,25,9.20
2012,06,11,05,26,9.20
2012,06,11,05,27,9.20
2012,06,11,05,28,9.20
2012,06,11,05,29,9.20
2012,06,11,05,30,9.20
2012,06,11,05,31,9.20
2012,06,11,05,32,9.20
2012,06,11,05,33,9.20
2012,06,11,05,34,9.20
2012,06,11,05,35,9.20
2012,06,11,05,36,9.20
2012,06,11,05,37,9.20
2012,06,11,05,38,9.20
2012,06,11,05,39,9.20
2012,06,11,05,40,9.20
2012,06,11,05,41,9.20
2012,06,11,05,42,9.20
2012,06,11,05,43,9.20
2012,06,11,05,44,9.20
2012,06,11,05,45,9.30
2012,06,11,05,46,9.30
2012,06,11,05,47,9.30
2012,06,11,05,48,9.30
2012,06,11,05,49,9.30
2012,06,11,05,50,9.30
2012,06,11,05,51,9.40
2012,06,11,05,52,9.40
2012,06,11,05,53,9.40
2012,06,11,05,54,9.40
2012,06,11,05,55,9.40
2012,06,11,05,56,9.40
2012,06,11,05,57,9.50
2012,06,11,05,58,9.50
2012,06,11,05,59,9.50
2012,06,11,06,00,9.50
2012,06,11,06,01,9.50
2012,06,11,06,02,9.50
2012,06,11,06,03,9.50
2012,06,11,06,04,9.50
2012,06,11,06,05,9.50
2012,06,11,06,06,9.60
2012,06,11,06,07,9.60
2012,06,11,06,08,9.60
2012,06,11,06,09,9.60
2012,06,11,06,10,9.70
2012,06,11,06,11,9.70
2012,06,11,06,12,9.70
2012,06,11,06,13,9.70
2012,06,11,06,14,9.80
2012,06,11,06,15,9.80
2012,06,11,06,16,9.80
2012,06,11,06,17,9.90
2012,06,11,06,18,9.90
2012,06,11,06,19,10.00
2012,06,11,06,20,10.00
2012,06,11,06,21,10.10
2012,06,11,06,22,10.20
2012,06,11,06,23,10.20
2012,06,11,06,24,10.30
2012,06,11,06,25,10.40
2012,06,11,06,26,10.40
2012,06,11,06,27,10.40
2012,06,11,06,28,10.50
2012,06,11,06,29,10.50
2012,06,11,06,30,10.60
2012,06,11,06,31,10.60
2012,06,11,06,32,10.60
2012,06,11,06,33,10.70
2012,06,11,06,34,10.70
2012,06,11,06,35,10.70
2012,06,11,06,36,10.80
2012,06,11,06,37,10.80
2012,06,11,06,38,10.80
2012,06,11,06,39,10.90
2012,06,11,06,40,10.90
2012,06,11,06,41,11.00
2012,06,11,06,42,11.10
2012,06,11,06,43,11.10
2012,06,11,06,44,11.20
2012,06,11,06,45,11.30
2012,06,11,06,46,11.40
2012,06,11,06,47,11.50
2012,06,11,06,48,11.60
2012,06,11,06,49,11.70
2012,06,11,06,50,11.80
2012,06,11,06,51,11.90
2012,06,11,06,52,12.00
2012,06,11,06,53,12.00
2012,06,11,06,54,12.10
2012,06,11,06,55,12.20
2012,06,11,06,56,12.30
2012,06,11,06,57,12.40
2012,06,11,06,58,12.40
2012,06,11,06,59,12.40
2012,06,11,07,00,12.50
2012,06,11,07,01,12.50
2012,06,11,07,02,12.60
2012,06,11,07,03,12.60
2012,06,11,07,04,12.60
2012,06,11,07,05,12.60
2012,06,11,07,06,12.70
2012,06,11,07,07,12.70
2012,06,11,07,08,12.70
2012,06,11,07,09,12.80
2012,06,11,07,10,12.80
2012,06,11,07,11,12.80
2012,06,11,07,12,12.80
2012,06,11,07,13,12.80
2012,06,11,07,14,12.70
2012,06,11,07,15,12.60
2012,06,11,07,16,12.60
2012,06,11,07,17,12.60
2012,06,11,07,18,12.60
2012,06,11,07,19,12.60
2012,06,11,07,20,12.60
2012,06,11,07,21,12.60
2012,06,11,07,22,12.60
2012,06,11,07,23,12.50
2012,06,11,07,24,12.50
2012,06,11,07,25,12.50
2012,06,11,07,26,12.50
2012,06,11,07,27,12.50
2012,06,11,07,28,12.50
2012,06,11,07,29,12.50
2012,06,11,07,30,12.60
2012,06,11,07,31,12.70
2012,06,11,07,32,12.80
2012,06,11,07,33,12.80
2012,06,11,07,34,13.00
2012,06,11,07,35,13.00
2012,06,11,07,36,13.00
2012,06,11,07,37,13.10
2012,06,11,07,38,13.10
2012,06,11,07,39,13.00
2012,06,11,07,40,13.00
2012,06,11,07,41,13.00
2012,06,11,07,42,12.90
2012,06,11,07,43,12.90
2012,06,11,07,44,12.90
2012,06,11,07,45,12.80
2012,06,11,07,46,12.80
2012,06,11,07,47,12.80
2012,06,11,07,48,12.80
2012,06,11,07,49,12.90
2012,06,11,07,50,12.90
2012,06,11,07,51,12.90
2012,06,11,07,52,13.00
2012,06,11,07,53,13.00
2012,06,11,07,54,13.00
2012,06,11,07,55,12.90
2012,06,11,07,56,13.00
2012,06,11,07,57,13.10
2012,06,11,07,58,13.10
2012,06,11,07,59,13.10
2012,06,11,08,00,13.20
2012,06,11,08,01,13.30
2012,06,11,08,02,13.30
2012,06,11,08,03,13.40
2012,06,11,08,04,13.40
2012,06,11,08,05,13.40
2012,06,11,08,06,13.40
2012,06,11,08,07,13.40
2012,06,11,08,08,13.40
2012,06,11,08,09,13.50
2012,06,11,08,10,13.50
2012,06,11,08,11,13.50
2012,06,11,08,12,13.60
2012,06,11,08,13,13.60
2012,06,11,08,14,13.60
2012,06,11,08,15,13.60
2012,06,11,08,16,13.60
2012,06,11,08,17,13.50
2012,06,11,08,18,13.40
2012,06,11,08,19,13.40
2012,06,11,08,20,13.30
2012,06,11,08,21,13.30
2012,06,11,08,22,13.40
2012,06,11,08,23,13.60
2012,06,11,08,24,13.70
2012,06,11,08,25,13.80
2012,06,11,08,26,13.90
2012,06,11,08,27,13.90
2012,06,11,08,28,13.90
2012,06,11,08,29,13.90
2012,06,11,08,30,13.80
2012,06,11,08,31,13.80
2012,06,11,08,32,13.80
2012,06,11,08,33,13.80
2012,06,11,08,34,13.90
2012,06,11,08,35,13.90
2012,06,11,08,36,13.90
2012,06,11,08,37,13.80
2012,06,11,08,38,13.80
2012,06,11,08,39,13.80
2012,06,11,08,40,13.70
2012,06,11,08,41,13.70
2012,06,11,08,42,13.70
2012,06,11,08,43,13.80
2012,06,11,08,44,13.90
2012,06,11,08,45,14.00
2012,06,11,08,46,14.00
2012,06,11,08,47,13.90
2012,06,11,08,48,13.80
2012,06,11,08,49,13.80
2012,06,11,08,50,13.90
2012,06,11,08,51,14.00
2012,06,11,08,52,14.10
2012,06,11,08,53,14.10
2012,06,11,08,54,14.20
2012,06,11,08,55,14.10
2012,06,11,08,56,14.10
2012,06,11,08,57,14.20
2012,06,11,08,58,14.20
2012,06,11,08,59,14.20
2012,06,11,09,00,14.30
2012,06,11,09,01,14.20
2012,06,11,09,02,14.30
2012,06,11,09,03,14.20
2012,06,11,09,04,14.20
2012,06,11,09,05,14.20
2012,06,11,09,06,14.30
2012,06,11,09,07,14.30
2012,06,11,09,08,14.30
2012,06,11,09,09,14.40
2012,06,11,09,10,14.50
2012,06,11,09,11,14.60
2012,06,11,09,12,14.70
2012,06,11,09,13,14.60
2012,06,11,09,14,14.50
2012,06,11,09,15,14.40
2012,06,11,09,16,14.30
2012,06,11,09,17,14.30
2012,06,11,09,18,14.40
2012,06,11,09,19,14.40
2012,06,11,09,20,14.50
2012,06,11,09,21,14.60
2012,06,11,09,22,14.70
2012,06,11,09,23,14.80
2012,06,11,09,24,14.90
2012,06,11,09,25,14.80
2012,06,11,09,26,14.80
2012,06,11,09,27,14.80
2012,06,11,09,28,14.70
2012,06,11,09,29,14.60
2012,06,11,09,30,14.60
2012,06,11,09,31,14.70
2012,06,11,09,32,14.80
2012,06,11,09,33,14.90
2012,06,11,09,34,15.00
2012,06,11,09,35,15.00
2012,06,11,09,36,15.00
2012,06,11,09,37,15.10
2012,06,11,09,38,15.00
2012,06,11,09,39,15.00
2012,06,11,09,40,15.00
2012,06,11,09,41,15.00
2012,06,11,09,42,14.90
2012,06,11,09,43,14.80
2012,06,11,09,44,14.70
2012,06,11,09,45,14.60
2012,06,11,09,46,14.50
2012,06,11,09,47,14.50
2012,06,11,09,48,14.50
2012,06,11,09,49,14.40
2012,06,11,09,50,14.40
2012,06,11,09,51,14.50
2012,06,11,09,52,14.50
2012,06,11,09,53,14.60
2012,06,11,09,54,14.70
2012,06,11,09,55,14.80
2012,06,11,09,56,14.80
2012,06,11,09,57,14.80
2012,06,11,09,58,14.80
2012,06,11,09,59,15.00
2012,06,11,10,00,15.00
2012,06,11,10,01,15.20
2012,06,11,10,02,15.20
2012,06,11,10,03,15.10
2012,06,11,10,04,15.00
2012,06,11,10,05,15.00
2012,06,11,10,06,15.00
2012,06,11,10,07,15.00
2012,06,11,10,08,15.00
2012,06,11,10,09,15.00
2012,06,11,10,10,15.00
2012,06,11,10,11,15.00
2012,06,11,10,12,15.00
2012,06,11,10,13,15.20
2012,06,11,10,14,15.30
2012,06,11,10,15,15.30
2012,06,11,10,16,15.30
2012,06,11,10,17,15.20
2012,06,11,10,18,15.20
2012,06,11,10,19,15.10
2012,06,11,10,20,15.00
2012,06,11,10,21,15.00
2012,06,11,10,22,15.00
2012,06,11,10,23,15.00
2012,06,11,10,24,15.00
2012,06,11,10,25,15.00
2012,06,11,10,26,15.00
2012,06,11,10,27,15.00
2012,06,11,10,28,15.00
2012,06,11,10,29,15.20
2012,06,11,10,30,15.40
2012,06,11,10,31,15.50
2012,06,11,10,32,15.70
2012,06,11,10,33,15.60
2012,06,11,10,34,15.40
2012,06,11,10,35,15.30
2012,06,11,10,36,15.20
2012,06,11,10,37,15.30
2012,06,11,10,38,15.30
2012,06,11,10,39,15.30
2012,06,11,10,40,15.20
2012,06,11,10,41,15.20
2012,06,11,10,42,15.30
2012,06,11,10,43,15.60
2012,06,11,10,44,15.80
2012,06,11,10,45,15.90
2012,06,11,10,46,16.10
2012,06,11,10,47,16.00
2012,06,11,10,48,15.80
2012,06,11,10,49,15.60
2012,06,11,10,50,15.50
2012,06,11,10,51,15.40
2012,06,11,10,52,15.30
2012,06,11,10,53,15.30
2012,06,11,10,54,15.30
2012,06,11,10,55,15.40
2012,06,11,10,56,15.50
2012,06,11,10,57,15.60
2012,06,11,10,58,15.70
2012,06,11,10,59,15.90
2012,06,11,11,00,16.00
2012,06,11,11,01,16.10
2012,06,11,11,02,16.10
2012,06,11,11,03,16.10
2012,06,11,11,04,16.10
2012,06,11,11,05,16.10
2012,06,11,11,06,16.00
2012,06,11,11,07,16.00
2012,06,11,11,08,16.10
2012,06,11,11,09,16.10
2012,06,11,11,10,16.00
2012,06,11,11,11,16.00
2012,06,11,11,12,16.00
2012,06,11,11,13,16.00
2012,06,11,11,14,16.00
2012,06,11,11,15,15.90
2012,06,11,11,16,15.90
2012,06,11,11,17,16.00
2012,06,11,11,18,16.10
2012,06,11,11,19,16.20
2012,06,11,11,20,16.30
2012,06,11,11,21,16.30
2012,06,11,11,22,16.30
2012,06,11,11,23,16.30
2012,06,11,11,24,16.30
2012,06,11,11,25,16.40
2012,06,11,11,26,16.50
2012,06,11,11,27,16.60
2012,06,11,11,28,16.50
2012,06,11,11,29,16.40
2012,06,11,11,30,16.40
2012,06,11,11,31,16.50
2012,06,11,11,32,16.50
2012,06,11,11,33,16.40
2012,06,11,11,34,16.30
2012,06,11,11,35,16.30
2012,06,11,11,36,16.20
2012,06,11,11,37,16.10
2012,06,11,11,38,16.10
2012,06,11,11,39,16.10
2012,06,11,11,40,16.10
2012,06,11,11,41,16.20
2012,06,11,11,42,16.30
2012,06,11,11,43,16.30
2012,06,11,11,44,16.50
2012,06,11,11,45,16.60
2012,06,11,11,46,16.70
2012,06,11,11,47,16.80
2012,06,11,11,48,16.80
2012,06,11,11,49,16.60
2012,06,11,11,50,16.60
2012,06,11,11,51,16.70
2012,06,11,11,52,16.80
2012,06,11,11,53,16.80
2012,06,11,11,54,16.80
2012,06,11,11,55,17.00
2012,06,11,11,56,17.00
2012,06,11,11,57,16.90
2012,06,11,11,58,17.00
2012,06,11,11,59,17.00
2012,06,11,12,00,16.90
2012,06,11,12,01,16.80
2012,06,11,12,02,16.90
2012,06,11,12,03,16.90
2012,06,11,12,04,17.00
2012,06,11,12,05,17.00
2012,06,11,12,06,17.00
2012,06,11,12,07,17.10
2012,06,11,12,08,17.20
2012,06,11,12,09,17.30
2012,06,11,12,10,17.20
2012,06,11,12,11,17.10
2012,06,11,12,12,17.20
2012,06,11,12,13,17.30
2012,06,11,12,14,17.40
2012,06,11,12,15,17.40
2012,06,11,12,16,17.50
2012,06,11,12,17,17.50
2012,06,11,12,18,17.40
2012,06,11,12,19,17.30
2012,06,11,12,20,17.20
2012,06,11,12,21,17.10
2012,06,11,12,22,17.10
2012,06,11,12,23,17.10
2012,06,11,12,24,17.20
2012,06,11,12,25,17.20
2012,06,11,12,26,17.30
2012,06,11,12,27,17.40
2012,06,11,12,28,17.50
2012,06,11,12,29,17.60
2012,06,11,12,30,17.50
2012,06,11,12,31,17.40
2012,06,11,12,32,17.30
2012,06,11,12,33,17.20
2012,06,11,12,34,17.20
2012,06,11,12,35,17.30
2012,06,11,12,36,17.40
2012,06,11,12,37,17.40
2012,06,11,12,38,17.40
2012,06,11,12,39,17.30
2012,06,11,12,40,17.30
2012,06,11,12,41,17.30
2012,06,11,12,42,17.30
2012,06,11,12,43,17.40
2012,06,11,12,44,17.50
2012,06,11,12,45,17.60
2012,06,11,12,46,17.70
2012,06,11,12,47,17.70
2012,06,11,12,48,17.60
2012,06,11,12,49,17.70
2012,06,11,12,50,17.70
2012,06,11,12,51,17.60
2012,06,11,12,52,17.50
2012,06,11,12,53,17.40
2012,06,11,12,54,17.30
2012,06,11,12,55,17.20
2012,06,11,12,56,17.20
2012,06,11,12,57,17.20
2012,06,11,12,58,17.20
2012,06,11,12,59,17.20
2012,06,11,13,00,17.30
2012,06,11,13,01,17.40
2012,06,11,13,02,17.50
2012,06,11,13,03,17.50
2012,06,11,13,04,17.50
2012,06,11,13,05,17.50
2012,06,11,13,06,17.40
2012,06,11,13,07,17.30
2012,06,11,13,08,17.20
2012,06,11,13,09,17.20
2012,06,11,13,10,17.20
2012,06,11,13,11,17.20
2012,06,11,13,12,17.40
2012,06,11,13,13,17.50
2012,06,11,13,14,17.40
2012,06,11,13,15,17.40
2012,06,11,13,16,17.40
2012,06,11,13,17,17.40
2012,06,11,13,18,17.50
2012,06,11,13,19,17.60
2012,06,11,13,20,17.80
2012,06,11,13,21,17.70
2012,06,11,13,22,17.60
2012,06,11,13,23,17.70
2012,06,11,13,24,17.70
2012,06,11,13,25,17.70
2012,06,11,13,26,17.60
2012,06,11,13,27,17.60
2012,06,11,13,28,17.60
2012,06,11,13,29,17.70
2012,06,11,13,30,17.70
2012,06,11,13,31,17.80
2012,06,11,13,32,18.00
2012,06,11,13,33,18.20
2012,06,11,13,34,18.40
2012,06,11,13,35,18.40
2012,06,11,13,36,18.20
2012,06,11,13,37,18.10
2012,06,11,13,38,17.90
2012,06,11,13,39,17.80
2012,06,11,13,40,17.80
2012,06,11,13,41,17.80
2012,06,11,13,42,17.80
2012,06,11,13,43,17.70
2012,06,11,13,44,17.80
2012,06,11,13,45,17.90
2012,06,11,13,46,18.10
2012,06,11,13,47,18.30
2012,06,11,13,48,18.30
2012,06,11,13,49,18.30
2012,06,11,13,50,18.40
2012,06,11,13,51,18.50
2012,06,11,13,52,18.40
2012,06,11,13,53,18.50
2012,06,11,13,54,18.60
2012,06,11,13,55,18.60
2012,06,11,13,56,18.50
2012,06,11,13,57,18.40
2012,06,11,13,58,18.30
2012,06,11,13,59,18.30
2012,06,11,14,00,18.20
2012,06,11,14,01,18.10
2012,06,11,14,02,18.00
2012,06,11,14,03,17.90
2012,06,11,14,04,17.80
2012,06,11,14,05,17.90
2012,06,11,14,06,18.10
2012,06,11,14,07,18.30
2012,06,11,14,08,18.30
2012,06,11,14,09,18.30
2012,06,11,14,10,18.30
2012,06,11,14,11,18.30
2012,06,11,14,12,18.30
2012,06,11,14,13,18.40
2012,06,11,14,14,18.40
2012,06,11,14,15,18.30
2012,06,11,14,16,18.40
2012,06,11,14,17,18.50
2012,06,11,14,18,18.40
2012,06,11,14,19,18.40
2012,06,11,14,20,18.40
2012,06,11,14,21,18.30
2012,06,11,14,22,18.30
2012,06,11,14,23,18.30
2012,06,11,14,24,18.30
2012,06,11,14,25,18.40
2012,06,11,14,26,18.30
2012,06,11,14,27,18.20
2012,06,11,14,28,18.20
2012,06,11,14,29,18.20
2012,06,11,14,30,18.20
2012,06,11,14,31,18.10
2012,06,11,14,32,18.10
2012,06,11,14,33,18.10
2012,06,11,14,34,18.20
2012,06,11,14,35,18.30
2012,06,11,14,36,18.40
2012,06,11,14,37,18.40
2012,06,11,14,38,18.30
2012,06,11,14,39,18.30
2012,06,11,14,40,18.30
2012,06,11,14,41,18.30
2012,06,11,14,42,18.30
2012,06,11,14,43,18.30
2012,06,11,14,44,18.30
2012,06,11,14,45,18.30
2012,06,11,14,46,18.30
2012,06,11,14,47,18.30
2012,06,11,14,48,18.20
2012,06,11,14,49,18.20
2012,06,11,14,50,18.20
2012,06,11,14,51,18.20
2012,06,11,14,52,18.20
2012,06,11,14,53,18.20
2012,06,11,14,54,18.20
2012,06,11,14,55,18.30
2012,06,11,14,56,18.40
2012,06,11,14,57,18.50
2012,06,11,14,58,18.60
2012,06,11,14,59,18.80
2012,06,11,15,00,18.80
2012,06,11,15,01,18.80
2012,06,11,15,02,18.90
2012,06,11,15,03,18.90
2012,06,11,15,04,18.80
2012,06,11,15,05,18.80
2012,06,11,15,06,18.60
2012,06,11,15,07,18.50
2012,06,11,15,08,18.40
2012,06,11,15,09,18.50
2012,06,11,15,10,18.50
2012,06,11,15,11,18.60
2012,06,11,15,12,18.60
2012,06,11,15,13,18.70
2012,06,11,15,14,18.90
2012,06,11,15,15,19.10
2012,06,11,15,16,19.20
2012,06,11,15,17,19.30
2012,06,11,15,18,19.30
2012,06,11,15,19,19.30
2012,06,11,15,20,19.20
2012,06,11,15,21,19.10
2012,06,11,15,22,19.00
2012,06,11,15,23,19.00
2012,06,11,15,24,18.90
2012,06,11,15,25,18.90
2012,06,11,15,26,18.80
2012,06,11,15,27,18.70
2012,06,11,15,28,18.60
2012,06,11,15,29,18.60
2012,06,11,15,30,18.60
2012,06,11,15,31,18.60
2012,06,11,15,32,18.60
2012,06,11,15,33,18.60
2012,06,11,15,34,18.50
2012,06,11,15,35,18.50
2012,06,11,15,36,18.50
2012,06,11,15,37,18.60
2012,06,11,15,38,18.60
2012,06,11,15,39,18.60
2012,06,11,15,40,18.60
2012,06,11,15,41,18.60
2012,06,11,15,42,18.60
2012,06,11,15,43,18.60
2012,06,11,15,44,18.60
2012,06,11,15,45,18.70
2012,06,11,15,46,18.70
2012,06,11,15,47,18.70
2012,06,11,15,48,18.70
2012,06,11,15,49,18.70
2012,06,11,15,50,18.70
2012,06,11,15,51,18.70
2012,06,11,15,52,18.70
2012,06,11,15,53,18.80
2012,06,11,15,54,18.90
2012,06,11,15,55,18.90
2012,06,11,15,56,19.00
2012,06,11,15,57,19.00
2012,06,11,15,58,19.10
2012,06,11,15,59,19.00
2012,06,11,16,00,19.00
2012,06,11,16,01,18.80
2012,06,11,16,02,18.70
2012,06,11,16,03,18.70
2012,06,11,16,04,18.70
2012,06,11,16,05,18.70
2012,06,11,16,06,18.70
2012,06,11,16,07,18.70
2012,06,11,16,08,18.60
2012,06,11,16,09,18.70
2012,06,11,16,10,18.70
2012,06,11,16,11,18.60
2012,06,11,16,12,18.60
2012,06,11,16,13,18.60
2012,06,11,16,14,18.60
2012,06,11,16,15,18.60
2012,06,11,16,16,18.70
2012,06,11,16,17,18.70
2012,06,11,16,18,18.70
2012,06,11,16,19,18.80
2012,06,11,16,20,18.80
2012,06,11,16,21,18.80
2012,06,11,16,22,18.80
2012,06,11,16,23,18.80
2012,06,11,16,24,18.80
2012,06,11,16,25,18.90
2012,06,11,16,26,18.90
2012,06,11,16,27,18.90
2012,06,11,16,28,18.90
2012,06,11,16,29,19.00
2012,06,11,16,30,19.10
2012,06,11,16,31,19.20
2012,06,11,16,32,19.10
2012,06,11,16,33,19.10
2012,06,11,16,34,19.10
2012,06,11,16,35,19.10
2012,06,11,16,36,19.20
2012,06,11,16,37,19.10
2012,06,11,16,38,19.10
2012,06,11,16,39,19.10
2012,06,11,16,40,19.00
2012,06,11,16,41,19.00
2012,06,11,16,42,18.90
2012,06,11,16,43,18.90
2012,06,11,16,44,18.80
2012,06,11,16,45,18.80
2012,06,11,16,46,18.70
2012,06,11,16,47,18.70
2012,06,11,16,48,18.70
2012,06,11,16,49,18.80
2012,06,11,16,50,18.80
2012,06,11,16,51,18.80
2012,06,11,16,52,18.80
2012,06,11,16,53,18.80
2012,06,11,16,54,18.80
2012,06,11,16,55,18.80
2012,06,11,16,56,18.70
2012,06,11,16,57,18.70
2012,06,11,16,58,18.70
2012,06,11,16,59,18.70
2012,06,11,17,00,18.80
2012,06,11,17,01,18.70
2012,06,11,17,02,18.80
2012,06,11,17,03,18.80
2012,06,11,17,04,18.90
2012,06,11,17,05,19.00
2012,06,11,17,06,19.00
2012,06,11,17,07,19.00
2012,06,11,17,08,19.00
2012,06,11,17,09,19.10
2012,06,11,17,10,19.10
2012,06,11,17,11,19.00
2012,06,11,17,12,18.90
2012,06,11,17,13,18.90
2012,06,11,17,14,18.80
2012,06,11,17,15,18.80
2012,06,11,17,16,18.90
2012,06,11,17,17,18.90
2012,06,11,17,18,19.00
2012,06,11,17,19,19.10
2012,06,11,17,20,19.20
2012,06,11,17,21,19.20
2012,06,11,17,22,19.30
2012,06,11,17,23,19.30
2012,06,11,17,24,19.30
2012,06,11,17,25,19.30
2012,06,11,17,26,19.40
2012,06,11,17,27,19.40
2012,06,11,17,28,19.30
2012,06,11,17,29,19.30